Hourly Data Report for October 30, 2015

All times are specified in Local Standard Time (LST). Add 1 hour to adjust for Daylight Saving Time where and when it is observed.

CAPE DORSET A
NUNAVUT

64°13'49.000" N
76°31'30.000" W
48.20 m
2400637
71366
YTE

Download Data

Hourly Data (October 2015)
Hourly Data Report for October 30, 2015
Temp Definition
°C
Dew Point Temp Definition
°C
Rel Hum Definition
%
Wind Dir Definition
10's deg

Wind Spd Definition
km/h
Visibility Definition
km
Stn Press Definition
kPa
Hmdx Definition


Wind Chill Definition


Weather Definition


TIME
00:00 Legend Double Dagger -13.7 -15.7 85 4 34 6.4 99.51   -25 Snow
01:00 Legend Double Dagger -13.2 -15.2 85 5 39 6.4 99.49   -25 Fog
02:00 Legend Double Dagger -13.2 -15.5 83 5 39 8.1 99.55   -25 Fog
03:00 Legend Double Dagger -13.1 -15.7 81 5 41 11.3 99.55   -25 LegendNANA
04:00 Legend Double Dagger -13.0 -14.9 86 5 39 4.8 99.56   -25 Snow
05:00 Legend Double Dagger -12.8 -15.0 84 5 43 14.5 99.57   -25 LegendNANA
06:00 Legend Double Dagger -12.3 -14.9 81 5 32 16.1 99.61   -23 LegendNANA
07:00 Legend Double Dagger -11.9 -14.4 82 3 24 16.1 99.64   -21 Snow
08:00 Legend Double Dagger -11.3 -13.7 83 3 26 16.1 99.64   -21 LegendNANA
09:00 Legend Double Dagger -11.3 -13.9 81 3 35 4.8 99.66   -22 Snow
10:00 Legend Double Dagger -11.1 -14.1 79 3 30 9.7 99.68   -21 Snow
11:00 Legend Double Dagger -10.2 -12.9 81 3 34 1.2 99.67   -20 Snow
12:00 Legend Double Dagger -9.4 -11.8 83 2 32 16.1 99.70   -19 Snow
13:00 Legend Double Dagger -8.8 -11.2 83 1 24 16.1 99.73   -17 Snow
14:00 Legend Double Dagger -8.2 -10.9 81 1 32 16.1 99.76   -17 Snow
15:00 Legend Double Dagger -8.3 -11.2 80 1 35 14.5 99.80   -18 Snow
16:00 Legend Double Dagger -8.2 -11.1 80 36 30 16.1 99.88   -17 Snow
17:00 Legend Double Dagger -8.6 -11.8 78 36 26 16.1 99.91   -17 LegendNANA
18:00 Legend Double Dagger -8.6 -11.7 79 1 26 16.1 99.97   -17 Snow
19:00 Legend Double Dagger -9.1 -12.1 79 36 24 16.1 100.02   -17 Snow
20:00 Legend Double Dagger -8.6 -12.1 76 2 22 16.1 100.05   -16 LegendNANA
21:00 Legend Double Dagger -8.2 -11.4 78 36 17 16.1 100.09   -15 LegendNANA
22:00 Legend Double Dagger -8.0 -11.2 78 34 21 16.1 100.12   -16 Snow
23:00 Legend Double Dagger -8.3 -12.6 71 34 21 16.1 100.17   -16 LegendNANA

Notes on Data Quality.

Legend

  • E = Estimated
  • M = Missing
  • NA = Not Available
  • ‡ = Partner data that is not subject to review by the National Climate Archives
Date modified: